{"data":{"norad_id":65214,"epoch":"2026-09-20T10:33:12.218400Z","epoch_age_seconds":125596,"freshness":"FRESH","line1":"1 65214U 25176S   26263.43972475  .00025776  00000+0  77136-3 0  9992","line2":"2 65214  53.1616 324.1591 0001278  83.0211 277.0937 15.34401422 62931","mean_motion":15.34401422,"eccentricity":0.0001278,"inclination_deg":53.1616,"raan_deg":324.1591,"arg_perigee_deg":83.0211,"mean_anomaly_deg":277.0937,"bstar":0.00077136,"rev_number":6293,"period_min":93.847671108324,"perigee_km":461.82475488414,"apogee_km":463.57327256925,"semimajor_km":6840.8360137267,"source":"CELESTRAK","updated_at":"2026-09-21T09:00:35.536541Z"}}